DateTimeUTC,F1_A11,F1_S11,BsB_S11,BsG_S11,BsR_S11,BbsB_S11,BbsG_S11,BbsR_S11,BaB_A11,BaG_A11,BaR_A11,Tu_S11,T_S11,Uu_S11,U_S11,P_S11,T1_A11
2021-12-17T03:00:00Z,00000200,21000000,,,,,,,-000.03,0000.26,-000.22,20.1,27.0,,00.0,0641.7,31.2
2021-12-17T03:01:00Z,00000200,21000000,,,,,,,0000.05,0000.20,0000.28,20.0,27.0,,00.0,0641.7,31.2
2021-12-17T03:02:00Z,00000200,21000000,,,,,,,0000.18,0000.25,0000.04,20.0,27.0,,00.0,0641.7,31.1
2021-12-17T03:03:00Z,00000200,61000000,,,,,,,0000.14,-000.34,0000.10,20.0,27.0,,00.0,0641.7,31.1
2021-12-17T03:04:00Z,00000200,41000000,0000.62,0000.04,-000.12,-000.25,0000.09,0000.13,-000.06,0000.45,-000.07,20.0,26.8,,00.0,0642.6,31.1
2021-12-17T03:05:00Z,00000200,01000000,-000.35,-000.23,0000.26,-000.07,0000.16,0000.32,0000.19,-000.25,-000.22,20.0,26.7,,00.0,0642.7,31.1
2021-12-17T03:06:00Z,00000200,01000000,-000.21,-000.08,0000.33,-000.09,0000.19,0000.04,0000.26,0000.31,0000.51,20.0,26.6,,00.0,0642.7,31.1
2021-12-17T03:07:00Z,00000200,01000000,0000.17,-000.06,0000.07,0000.12,0000.17,-000.09,-000.04,0000.23,0000.11,20.0,26.6,,00.0,0642.7,31.1
2021-12-17T03:08:00Z,00000200,01000000,-000.16,-000.00,0000.41,0000.31,-000.22,0000.25,0000.02,-000.12,0000.04,20.1,26.7,,00.0,0642.7,31.1
2021-12-17T03:09:00Z,00000200,01000000,-000.66,0000.25,0000.21,-000.23,-000.02,0000.04,0000.22,0000.07,0000.21,20.1,26.7,,00.0,0642.7,31.1
2021-12-17T03:10:00Z,00000200,01000000,-000.04,-000.34,0000.23,-000.04,0000.03,-000.08,0000.02,0000.40,-000.01,20.2,26.7,,00.0,0642.7,31.1
2021-12-17T03:11:00Z,00000200,01000000,-000.86,0000.15,0000.52,-000.41,-000.17,0000.24,0000.22,0000.01,0000.28,20.2,26.7,,00.0,0642.7,31.2
2021-12-17T03:12:00Z,00000200,01000000,-000.03,0000.12,0000.10,-000.29,0000.24,0000.32,-000.07,0000.13,-000.10,20.3,26.7,,00.0,0642.7,31.2
2021-12-17T03:13:00Z,00000200,01000000,-000.40,0000.16,-000.01,0000.00,-000.08,0000.41,0000.25,0000.25,-000.06,20.3,26.8,,00.0,0642.8,31.2
2021-12-17T03:14:00Z,00000200,01000000,0000.04,0000.04,-000.06,-000.20,0000.24,-000.08,0000.33,-000.19,0000.31,20.4,26.8,,00.0,0642.8,31.2
2021-12-17T03:15:00Z,00000200,01000000,-000.36,-000.09,0000.01,-000.17,0000.16,0000.01,0000.27,0000.21,0000.11,20.4,26.8,,00.0,0642.7,31.2
2021-12-17T03:16:00Z,00000200,01000000,0000.55,0000.08,0000.08,0000.00,-000.04,0000.17,-000.41,0000.03,-000.31,20.3,26.8,,00.0,0642.8,31.2
2021-12-17T03:17:00Z,00000200,01000000,-000.21,-000.41,0000.11,-000.04,0000.13,0000.29,0000.63,0000.28,0000.20,20.2,26.8,,00.0,0642.8,31.1
2021-12-17T03:18:00Z,00000200,01000000,0000.04,0000.24,0000.20,0000.14,-000.12,0000.04,-000.15,-000.17,-000.13,20.2,26.7,,00.0,0642.8,31.1
2021-12-17T03:19:00Z,00000200,01000000,-000.12,-000.33,0000.07,0000.01,-000.12,0000.04,-000.03,0000.27,0000.51,20.1,26.7,,00.0,0642.8,31.1
2021-12-17T03:20:00Z,00000200,01000000,-000.08,-000.29,-000.33,-000.43,0000.21,-000.25,0000.09,-000.01,-000.44,20.1,26.7,,00.0,0642.8,31.1
2021-12-17T03:21:00Z,00000200,01000000,0000.22,-000.24,0000.34,-000.06,-000.11,0000.27,0000.02,0000.17,0000.48,20.1,26.6,,00.0,0642.8,31.2
2021-12-17T03:22:00Z,00000200,01000000,-000.38,0000.05,0000.36,-000.46,-000.00,0000.26,0000.20,0000.06,0000.28,20.1,26.6,,00.0,0642.8,31.1
2021-12-17T03:23:00Z,00000200,01000000,-000.82,0000.12,0000.04,-000.45,0000.05,0000.06,0000.56,0000.44,0000.11,20.1,26.7,,00.0,0642.8,31.1
2021-12-17T03:24:00Z,00000200,01000000,-000.58,-000.10,0000.30,0000.30,0000.23,0000.23,-000.15,0000.11,-000.00,20.2,26.7,,00.0,0642.8,31.1
2021-12-17T03:25:00Z,00000200,01000000,0000.07,-000.05,0000.35,0000.01,0000.14,0000.03,0000.66,0000.62,0000.57,20.2,26.7,,00.0,0642.7,31.2
2021-12-17T03:26:00Z,00000200,01000000,0000.23,-000.06,0000.02,0000.22,0000.07,-000.17,0000.32,-000.02,-000.13,20.2,26.7,,00.0,0642.8,31.2
2021-12-17T03:27:00Z,00000200,01000000,-000.26,-000.19,0000.14,0000.63,-000.04,0000.28,0000.22,0000.52,-000.15,20.2,26.7,,00.0,0642.8,31.1
2021-12-17T03:28:00Z,00000200,01000000,0000.38,0000.13,-000.14,0000.02,-000.10,0000.14,-000.05,0000.04,0000.41,20.2,26.7,,00.0,0642.7,31.1
2021-12-17T03:29:00Z,00000200,01000000,0000.26,-000.16,0000.27,-000.35,0000.24,0000.12,0000.17,-000.08,0000.12,20.1,26.7,,00.0,0642.8,31.1
2021-12-17T03:30:00Z,00000200,01000000,0000.12,0000.02,0000.35,0000.62,0000.12,0000.07,-000.02,-000.22,0000.05,20.0,26.7,,00.0,0642.8,31.1
2021-12-17T03:31:00Z,00000200,01000000,-000.21,-000.06,0000.37,-000.18,0000.13,-000.12,0000.18,0000.29,-000.01,20.0,26.6,,00.0,0642.8,31.1
2021-12-17T03:32:00Z,00000200,01000000,-000.13,0000.25,0000.08,0000.07,0000.06,0000.01,-000.11,-000.33,-000.42,19.9,26.6,,00.0,0642.8,31.1
2021-12-17T03:33:00Z,00000200,01000000,-000.15,0000.09,0000.26,-000.34,0000.17,0000.37,0000.06,0000.35,0000.28,19.8,26.5,,00.0,0642.8,31.1
2021-12-17T03:34:00Z,00000200,01000000,0000.30,-000.08,0000.07,-000.64,0000.24,0000.22,-000.08,-000.32,0000.29,19.8,26.5,,00.0,0642.8,31.1
2021-12-17T03:35:00Z,00000200,01000000,-000.13,-000.25,-000.14,-000.26,0000.18,-000.29,-000.29,-000.38,-000.41,19.7,26.4,,00.0,0642.8,31.1
2021-12-17T03:36:00Z,00000200,01000000,-000.23,-000.23,0000.16,0000.29,0000.12,0000.13,0000.44,0000.08,0000.08,19.7,26.4,,00.0,0642.8,31.1
2021-12-17T03:37:00Z,00000200,01000000,-000.21,0000.10,0000.18,-000.58,0000.42,0000.13,-000.05,0000.57,0000.18,19.8,26.4,,00.0,0642.8,31.1
2021-12-17T03:38:00Z,00000200,01000000,0000.18,-000.37,-000.05,0000.29,0000.21,0000.15,0000.03,0000.44,0000.01,19.8,26.5,,00.0,0642.8,31.1
2021-12-17T03:39:00Z,00000200,01000000,0000.47,0000.06,0000.25,0000.14,0000.10,0000.19,0000.02,-000.25,0000.29,19.9,26.5,,00.0,0642.9,31.1
2021-12-17T03:40:00Z,00000200,01000000,-000.02,-000.05,-000.05,-000.28,-000.25,-000.03,0000.26,0000.17,-000.17,19.9,26.5,,00.0,0642.9,31.1
2021-12-17T03:41:00Z,00000200,01000000,-000.66,0000.30,0000.21,-000.01,0000.17,0000.16,0000.08,-000.12,-000.03,20.0,26.5,,00.0,0642.9,31.1
2021-12-17T03:42:00Z,00000200,01000000,0000.50,0000.16,-000.03,-000.29,0000.05,-000.01,-000.05,0000.06,0000.06,20.0,26.5,,00.0,0642.9,31.1
2021-12-17T03:43:00Z,00000200,01000000,0000.37,-000.02,0000.10,-000.08,0000.06,-000.02,-000.02,0000.03,0000.02,20.0,26.6,,00.0,0642.9,31.1
2021-12-17T03:44:00Z,00000200,01000000,-000.18,-000.36,0000.24,-000.19,-000.17,0000.09,0000.35,0000.33,0000.15,20.0,26.5,,00.0,0642.9,31.1
2021-12-17T03:45:00Z,00000200,01000000,0000.08,-000.31,-000.22,0000.28,-000.13,0000.36,-000.04,0000.03,0000.08,19.9,26.5,,00.0,0642.9,31.1
2021-12-17T03:46:00Z,00000200,01000000,0001.52,0000.04,0000.01,0000.12,0000.25,0000.04,0000.03,-000.16,0000.03,19.9,26.5,,00.0,0642.9,31.1
2021-12-17T03:47:00Z,00000200,01000000,-000.39,-000.10,0000.14,-000.38,0000.26,0000.27,0000.01,0000.11,0000.19,19.8,26.4,,00.0,0642.9,31.1
2021-12-17T03:48:00Z,00000200,01000000,0000.51,0000.03,-000.14,-000.48,0000.04,0000.03,0000.21,0000.00,-000.40,19.8,26.4,,00.0,0642.8,31.1
2021-12-17T03:49:00Z,00000200,01000000,-000.67,-000.50,-000.03,-000.44,0000.11,0000.04,-000.39,0000.20,0000.37,19.7,26.4,,00.0,0642.8,31.1
2021-12-17T03:50:00Z,00000200,01000000,-000.98,-000.14,0000.19,0000.14,0000.13,0000.06,0000.23,-000.23,0000.04,19.6,26.3,,00.0,0642.8,31.1
2021-12-17T03:51:00Z,00000200,01000000,0000.47,-000.39,0000.03,-000.45,-000.29,0000.28,0000.16,0000.45,0000.03,19.6,26.3,,00.0,0642.8,31.1
2021-12-17T03:52:00Z,00000200,01000000,0000.06,-000.19,-000.20,0000.36,-000.23,-000.11,0000.20,-000.28,0000.06,19.7,26.3,,00.0,0642.8,31.1
2021-12-17T03:53:00Z,00000200,01000000,-000.41,-000.38,-000.43,-000.53,-000.01,-000.03,-000.16,-000.01,-000.21,19.8,26.3,,00.0,0642.9,31.1
2021-12-17T03:54:00Z,00000200,01000000,0000.31,-000.35,-000.22,-000.39,0000.37,-000.27,0000.10,0000.40,0000.30,19.8,26.4,,00.0,0642.9,31.1
2021-12-17T03:55:00Z,00000200,01000000,0000.03,-000.59,0000.19,-000.15,0000.02,0000.25,0000.08,-000.05,0000.19,19.9,26.4,,00.0,0642.9,31.1
2021-12-17T03:56:00Z,00000200,01000000,-000.46,-000.27,0000.19,-000.35,-000.08,0000.07,0000.06,0000.08,-000.10,20.0,26.4,,00.0,0642.9,31.1
2021-12-17T03:57:00Z,00000200,41000000,,,,,,,-000.53,-000.38,-000.53,20.1,26.5,,00.0,0642.9,31.1
2021-12-17T03:58:00Z,00000200,61000000,,,,,,,0000.70,0000.01,0000.28,19.8,26.6,,00.0,0642.0,31.2
2021-12-17T03:59:00Z,00000200,21000000,,,,,,,-000.23,-000.12,0000.22,19.8,26.7,,00.0,0642.0,31.1
